{"data":{"norad_id":42984,"intl_designator":"2017-067A","name":"KOREASAT 5A","alt_names":[],"object_type":"PAYLOAD","status":"ACTIVE","operator":null,"country":"SKOR","launch_date":"2017-10-30","launch_site_code":"AFETR","launch_vehicle":null,"mission":null,"orbit_class":"UNKNOWN","rcs_meters":null,"size_class":null,"mass_kg":null,"dimensions":null,"purposes":["comms"],"wikipedia_slug":null,"has_3d_model":false,"image_url":null,"decayed_at":null,"tle_current":{"epoch":"2026-09-19T20:55:51.038400Z","epoch_age_seconds":80315,"freshness":"FRESH","line1":"1 42984U 17067A   26262.87211850  .00000000  00000+0  00000+0 0  9996","line2":"2 42984   0.0176 144.5268 0000901  43.2215 238.1393  1.00270525 32477","mean_motion":1.00270525,"eccentricity":9.01e-5,"inclination_deg":0.0176,"raan_deg":144.5268,"arg_perigee_deg":43.2215,"mean_anomaly_deg":238.1393,"bstar":0,"rev_number":3247,"period_min":1436.1149500314,"perigee_km":35783.149114453,"apogee_km":35790.747262804,"semimajor_km":42165.085188629,"source":"CELESTRAK","updated_at":"2026-09-20T09:00:35.257731Z"}}}